Location: Emblem
(62.4273°N, 6.4710°E)
Time: 20:46:27
(UTC+02:00)

Vanguard 2 - Pass Details

Date: 13 February 2023
Orbit: 553 x 2927 km, 32.9° (Epoch: 27 March)

Event Time Altitude Azimuth Distance (km) Brightness Sun altitude
Rises 00:22:35 0° 245° (WSW) 5,513 11.8 -40.9°
Enters shadow 00:23:08 - 243° (WSW) 5,452 11.7 -40.9°
Reaches altitude 10° 00:29:41 10° 219° (SW) 5,051 - -41.0°
Maximum altitude 00:34:15 12° 201° (SSW) 5,146 - -41.0°
Drops below altitude 10° 00:39:11 10° 183° (S) 5,543 - -41.1°
Sets 00:48:17 0° 159° (SSE) 6,766 - -41.1°
